DW0465 Weather Reports


Display with metric or nautical units.
time (UTC)temp
F
wind
direction
speed
MPH
gust
MPH
rain 1hr
in
rain 24hr
in
rain mn
in
humidity
%
barometer
mb
20260502203003 68 82 0.0 3.0 0.00 0.00 0.00 17 1012.0
20260502201501 69 107 0.0 3.0 0.00 0.00 0.00 15 1012.0
20260502200059 68 90 0.0 2.0 0.00 0.00 0.00 17 1012.4
20260502194557 69 5 0.0 4.0 0.00 0.00 0.00 11 1012.4
20260502193102 68 67 0.0 0.0 0.00 0.00 0.00 13 1012.6
20260502191559 68 5 0.0 1.0 0.00 0.00 0.00 13 1012.8
20260502184553 66 287 0.0 4.0 0.00 0.00 0.00 14 1013.4
20260502183100 67 66 0.0 3.0 0.00 0.00 0.00 14 1013.6
20260502181543 67 130 0.0 1.0 0.00 0.00 0.00 16 1013.8
20260502163018 64 19 0.0 0.0 0.00 0.00 0.00 18 1014.9
20260502161514 63 71 0.0 0.0 0.00 0.00 0.00 18 1015.1
20260502151606 59 175 0.0 0.0 0.00 0.00 0.00 25 1015.4
20260502123016 37 209 0.0 0.0 0.00 0.00 0.00 49 1016.2
20260502121511 37 187 0.0 1.0 0.00 0.00 0.00 51 1016.1
20260502114508 37 184 0.0 3.0 0.00 0.00 0.00 52 1016.3
20260502113007 39 184 0.0 8.0 0.00 0.00 0.00 47 1016.2
20260502111515 38 152 0.0 4.0 0.00 0.00 0.00 48 1016.4
20260502110009 39 205 0.0 1.0 0.00 0.00 0.00 49 1016.6
20260502104503 39 192 0.0 1.0 0.00 0.00 0.00 49 1016.5
20260502103003 38 178 0.0 2.0 0.00 0.00 0.00 50 1016.5
20260502101503 38 200 0.0 1.0 0.00 0.00 0.00 51 1016.5
20260502090106 37 234 0.0 0.0 0.00 0.00 0.00 57 1016.9
20260502070040 39 223 0.0 0.0 0.00 0.00 0.00 53 1017.3
20260502064539 39 180 0.0 0.0 0.00 0.00 0.00 53 1017.3
20260502063037 39 215 0.0 0.0 0.00 0.00 0.00 51 1017.4
20260502061534 40 199 0.0 0.0 0.00 0.00 0.00 49 1017.5
20260502060031 41 238 0.0 1.0 0.00 0.00 0.00 48 1017.4
20260502054528 42 186 0.0 1.0 0.00 0.00 0.00 46 1017.5
20260502053028 43 191 0.0 1.0 0.00 0.00 0.00 45 1017.7
20260502051530 44 194 0.0 5.0 0.00 0.00 0.00 43 1017.7
20260502050035 44 194 0.0 2.0 0.00 0.00 0.00 43 1017.8
20260502044526 45 204 0.0 3.0 0.00 0.00 0.00 42 1017.8
20260502043026 45 188 0.0 1.0 0.00 0.00 0.00 41 1017.8
20260502041532 46 190 0.0 2.0 0.00 0.00 0.00 40 1018.1
20260502040023 47 178 0.0 0.0 0.00 0.00 0.00 38 1018.1
20260502034523 47 171 0.0 0.0 0.00 0.00 0.00 34 1018.0
20260502033026 48 146 0.0 0.0 0.00 0.00 0.00 33 1017.7
20260502031522 48 143 0.0 0.0 0.00 0.00 0.00 34 1017.6
20260502030021 49 143 0.0 0.0 0.00 0.00 0.00 32 1017.3
20260502024521 52 144 0.0 0.0 0.00 0.00 0.00 30 1017.0
20260502023020 55 142 0.0 0.0 0.00 0.00 0.00 27 1016.9
20260502021521 57 140 0.0 0.0 0.00 0.00 0.00 24 1016.9
20260502020020 58 120 0.0 3.0 0.00 0.00 0.00 23 1016.8
20260502014526 59 117 0.0 1.0 0.00 0.00 0.00 21 1016.8
20260502013117 60 94 0.0 1.0 0.00 0.00 0.00 21 1016.6
20260502011516 61 76 0.0 1.0 0.00 0.00 0.00 20 1016.6
20260502010022 61 78 0.0 0.0 0.00 0.00 0.00 19 1016.6
20260502004514 61 32 0.0 0.0 0.00 0.00 0.00 20 1016.6
20260502003113 62 73 0.0 2.0 0.00 0.00 0.00 18 1016.8
20260502001512 62 11 0.0 0.0 0.00 0.00 0.00 17 1016.7
20260502000009 62 5 0.0 1.0 0.00 0.00 0.00 18 1017.0
20260501234507 62 343 0.0 1.0 0.00 0.00 0.00 19 1017.1
20260501233006 62 31 0.0 2.0 0.00 0.00 0.00 21 1017.2
20260501231505 61 9 0.0 3.0 0.00 0.00 0.00 20 1017.3
20260501230003 61 44 0.0 1.0 0.00 0.00 0.00 19 1017.3
20260501224503 61 338 0.0 4.0 0.00 0.00 0.00 19 1017.5
20260501223142 61 5 0.0 0.0 0.00 0.00 0.00 19 1017.6
20260501221559 60 17 0.0 1.0 0.00 0.00 0.00 20 1017.9
20260501220057 60 38 0.0 3.0 0.00 0.00 0.00 20 1018.2
20260501214556 60 63 0.0 1.0 0.00 0.00 0.00 21 1018.3
20260501213100 60 90 0.0 3.0 0.00 0.00 0.00 20 1018.5
20260501211554 60 47 0.0 1.0 0.00 0.00 0.00 19 1018.7
20260501210050 59 341 0.0 0.0 0.00 0.00 0.00 23 1018.7
20260501204607 59 74 0.0 0.0 0.00 0.00 0.00 22 1018.9